Regional Weather Roundup
Issued by NWS

Home | Current Version | Previous Version | Graphics & Text | Print | Product List | Glossary On
Versions: 1 2 3 4 5 6 7 8 9 10 11 12 13 14 15 16 17 18 19 20 21 22 23 24 25 26 27
000
ASUS45 KTFX 051910
RWRMT
MONTANA REGIONAL WEATHER ROUNDUP
NATIONAL WEATHER SERVICE GREAT FALLS MT
1200 PM MST MON DEC 05 2016

NOTE: "FAIR" INDICATES FEW OR NO CLOUDS BELOW 12000 FEET WITH NO
SIGNIFICANT WEATHER AND/OR OBSTRUCTIONS TO VISIBILITY.

MTZ001>007-043-052000-
WEST OF THE DIVIDE

CITY           SKY/WX    TMP DP  RH WIND       PRES   REMARKS
KALISPELL      FLURRIES  24  15  68 S6        30.00S WCI  17
MISSOULA       PTSUNNY   27  10  49 N5        30.03F
BUTTE          SUNNY     19  -2  39 NW12      29.89F WCI   7
MULLAN PASS    MOSUNNY   13   9  84 VRB5      29.85S
ANACONDA         N/A     21   0  39 W9G23     29.92F WCI  11
DEER LODGE       N/A     25   1  36 S3        29.95S
EUREKA           N/A     23  21  93 SE6       30.02S WCI  16
HAMILTON         N/A     27   9  46 S13       30.02S WCI  16
LIBBY            N/A     28  19  69 CALM      30.03S
PLAINS           N/A     28  14  55 NE6       30.05S WCI  22
$$

MTZ008-052>055-052000-
SOUTHWEST MONTANA

CITY           SKY/WX    TMP DP  RH WIND       PRES   REMARKS
BOZEMAN        CLOUDY    22  10  60 W6        29.95S WCI  14
DILLON         SUNNY     22  -3  33 W12       29.91F WCI  10
W YELLOWSTONE  PTSUNNY   12  -4  48 W5        29.85R
ENNIS          MOSUNNY   21   0  39 VRB7G15   29.96S WCI  13
$$

MTZ009-010-012-014-046-048-049-054-052000-
EAST SLOPES AND CENTRAL MONTANA

CITY           SKY/WX    TMP DP  RH WIND       PRES   REMARKS
CUT BANK       CLOUDY     8   0  69 N23       30.02R WCI -13
GREAT FALLS    LGT SNOW  13   5  70 NW9       30.03S WCI   1
MALMSTROM AFB  SNOWSHWR  13   9  81 NW3       30.04F
HELENA         CLOUDY    21  15  78 CALM      29.97S
AUGUSTA        FLURRIES   8   4  83 N9        29.97S WCI  -6
BOWMANS CRNR   FLURRIES   8   3  82 NE10      29.96S WCI  -7
CHOTEAU          N/A     10   5  79 NW9       30.03S HAZE    WCI  -2
CONRAD           N/A     10   4  77 NW13      30.04R WCI  -5
FAIRFIELD      LGT SNOW  10   4  78 NW12      30.01R WCI  -5
POWER          PTSUNNY    9   2  72 NW15      30.01R WCI  -7
RAYNESFORD     FLURRIES   9   5  84 NW8       30.00S WCI  -3
ULM            SNOWSHWR  13   7  76 N14       30.04S WCI  -2
$$

MTZ011-013-016-021-045-047-050-051-052000-
NORTH CENTRAL MONTANA

CITY           SKY/WX    TMP DP  RH WIND       PRES   REMARKS
HAVRE          PTSUNNY    9   1  70 NW17      30.07S WCI  -9
LEWISTOWN      CLOUDY     9   4  80 NW17      29.94R WCI  -9
N BAR RANCH      N/A     12   1  62 NW21      29.87R WCI  -6
CHINOOK          N/A      9   1  72 W21G29    30.05R WCI -11
DENTON         FLURRIES   9   4  79 NW10G33   29.97R WCI  -5
GEYSER         PTSUNNY   11   5  77 W22G31    29.95R WCI  -9
GRASS RANGE      N/A     13   6  74 W29G38    29.87R WCI  -8
JUDITH GAP     PTSUNNY   10   4  74 MISG      29.87S
ROY              N/A     11   6  81 MISG      29.89R
STANFORD         N/A     11   4  74 NW23G30   29.92R WCI  -9
WINIFRED       FLURRIES   8   4  86 MISG      29.95R
$$

MTZ017>020-022>027-061-062-052000-
NORTHEAST MONTANA

CITY           SKY/WX    TMP DP  RH WIND       PRES   REMARKS
GLASGOW        CLOUDY    11   2  67 NW33G40   29.92R WCI -12
JORDAN           N/A     13   6  74 NW24G35   29.92R WCI  -7
SIDNEY         SNOW      18  14  86 NW37      29.76R VSB 1/2 WCI  -4
WOLF POINT     SNOW      13   7  77 NW29G35   29.89R VSB 1/2 WCI  -8
PLENTYWOOD       N/A     12  10  92 NW35G43   29.72R VSB 0   WCI -10
POPLAR           N/A     12   7  79 NW20G28   29.85R WCI  -6
SCOBEY           N/A      9  -1  63 W29       29.80R VSB 0   WCI -13
$$

MTZ028>42-056>058-052000-
SOUTHCENTRAL AND SOUTHEAST MONTANA

CITY           SKY/WX    TMP DP  RH WIND       PRES   REMARKS
BAKER          PTSUNNY   22  13  68 NW28G37   29.74R WCI   4
BILLINGS       CLOUDY    24   4  42 NW26G38   29.89R WCI   8
LIVINGSTON     CLOUDY    19   9  65 NW12      29.91S WCI   7
MILES CITY     CLOUDY    21   9  59 NW33G41   29.87R WCI   2
BIG TIMBER     SUNNY     21   3  45 W30       29.90S WCI   3
EKALAKA          N/A     19  10  68 W23       29.73  WCI   2
FORSYTH          N/A     21  14  73 NW12G20   29.90R WCI   9
HARLOWTON        N/A     19   7  61 N15       29.88S WCI   5
LAUREL           N/A     24   1  36 W14       29.90R WCI  12
ROUNDUP          N/A     23  -2  33 W20       29.83R WCI   8
$$

REGIONAL REPORTS...DAKOTAS

CITY           SKY/WX    TMP DP  RH WIND       PRES   REMARKS
WILLISTON      LGT SNOW  20  14  77 NW35G44   29.71R VSB 3/4 WCI   0
MINOT          CLOUDY    24  18  77 SW15      29.56R WCI  11
DICKINSON      SNOW      19  15  84 NW33G40   29.63F VSB 1/4 WCI  -1
BEACH          FLURRIES  18  14  86 NW31G41   29.76R WCI  -2
CROSBY         SNOW      19  19 100 NW36G41   29.66R VSB 1/2 WCI  -1
TIOGA          CLOUDY    19  19 100 NW25G32   29.63R FOG     WCI   2
WATFORD CITY   LGT SNOW  18  16  93 NW24G35   29.69R VSB 3/4 WCI   0
BISMARCK       HVY SNOW  31  29  92 NW15      29.58R VSB 1/4 WCI  20
GRAND FORKS    CLOUDY    30  26  85 NE12      29.63F WCI  20
FARGO          CLOUDY    34  28  79 E10       29.55F WCI  26
BUFFALO SD       N/A     24  14  65 NW39G51   29.61R WCI   5
RAPID CITY     CLOUDY    27  16  63 NW41G51   29.65R WCI   8
$$

REGIONAL REPORTS...WYOMING/IDAHO/WASHINGTON

CITY           SKY/WX    TMP DP  RH WIND       PRES   REMARKS
GILLETTE       FLURRIES  20  14  77 NW23      29.76S WCI   3
SHERIDAN       LGT SNOW  20  15  81 N18       29.85R WCI   5
BUFFALO WY     CLOUDY    19  12  74 N28G37    29.76R BLWGSNOWWCI   1
CODY           CLOUDY    19  11  70 N10       29.85R WCI   7
YELLOWSTONE LA   N/A      7  -3  64 VRB7      29.78R WCI  -5
IDAHO FALLS    MOSUNNY   24  12  60 SW16G25   30.00S WCI  11
SALMON         SUNNY     23   3  42 CALM      30.03F
BOISE          SUNNY     31  16  54 CALM      30.15F
SPOKANE        PTSUNNY   28  21  75 S6        30.06F WCI  22
$$

REGIONAL REPORTS...ALBERTA

CITY           SKY/WX    TMP DP  RH WIND       PRES   REMARKS
EDMONTON       CLOUDY     1  -6  71 W8G18     30.16R WCI -12
CALGARY        PTSUNNY    7  -2  66 N14       30.04R WCI -10
LETHBRIDGE     FLURRIES   9   1  72 NW16G22   30.09S WCI  -9
MEDICINE HAT   CLOUDY     9   0  66 NW17G28   30.09S WCI -10
WATERTON GATE    N/A      9   3  78 E6          N/A  WCI  -1
CARDSTON         N/A     12   7  79 CALM        N/A
MILK RIVER       N/A      7   1  78 NW20        N/A  WCI -13
$$

REGIONAL REPORTS...SASKATCHEWAN

CITY           SKY/WX    TMP DP  RH WIND       PRES   REMARKS
SWIFT CURRENT  CLOUDY     3   0  85 NW28G33   29.89R FOG     WCI -21
REGINA         LGT SNOW  18  12  79 NW24G31   29.79S BLWGSNOWWCI   0
SASKATOON      FLURRIES  14   5  67 NW16G22   29.92R WCI  -2
CYPRESS HILLS    N/A     -4  -8  84 NW16G28     N/A  WCI -25
$$




USA.gov is the U.S. government's official web portal to all federal, state and local government web resources and services.